Location: Nederland
(52.1000°N, 5.2000°E)
Time: 19:53:18
(UTC+02:00)

FENGYUN 1C DEB - Pass Details

Date: 29 January 2022
Orbit: 736 x 834 km, 99.0° (Epoch: 25 May)

Event Time Altitude Azimuth Distance (km) Brightness Sun altitude
Rises 07:17:06 0° 98° (E) 3,303 ? -10.4°
Reaches altitude 10° 07:20:43 10° 72° (ENE) 2,399 ? -9.8°
Maximum altitude 07:23:02 13° 46° (NE) 2,205 ? -9.5°
Drops below altitude 10° 07:25:22 10° 20° (NNE) 2,430 ? -9.1°
Sets 07:29:04 0° 354° (N) 3,384 ? -8.6°
